QPF
0.00 0.00 0.00 0.00 0.00 0.00 0.00 0.00 0.00 0.00 0.00 0.00 0.00 0.00 0.00 0.00 0.00 0.00 0.00 0.00 0.00 0.00 0.01 0.01 0.01 0.01 0.02 0.02 0.02 0.03 0.03 0.03 0.03 0.03 0.03 0.03 0.03 0.03
0.00 0.00 0.00 0.00 0.00 0.00 0.00 0.00 0.00 0.00 0.00 0.00 0.00 0.00 0.00 0.00 0.00 0.00 0.00 0.00 0.00 0.00 0.01 0.01 0.01 0.01 0.01 0.01 0.02 0.02 0.03 0.04 0.05 0.06 0.06 0.07 0.07 0.08
0.00 0.00 0.00 0.00 0.00 0.00 0.00 0.00 0.00 0.00 0.00 0.00 0.00 0.00 0.00 0.00 0.00 0.00 0.00 0.00 0.00 0.01 0.01 0.01 0.01 0.01 0.02 0.02 0.03 0.03 0.04 0.05 0.06 0.07 0.08 0.08 0.09 0.09
0.00 0.00 0.00 0.00 0.00 0.00 0.00 0.00 0.00 0.00 0.00 0.00 0.00 0.00 0.00 0.00 0.00 0.00 0.00 0.00 0.00 0.00 0.00 0.00 0.01 0.01 0.02 0.02 0.03 0.04 0.05 0.05 0.06 0.06 0.06 0.06 0.07 0.07
0.00 0.00 0.00 0.00 0.00 0.00 0.00 0.00 0.00 0.00 0.00 0.00 0.00 0.00 0.00 0.00 0.00 0.00 0.00 0.00 0.00 0.00 0.00 0.00 0.00 0.01 0.02 0.02 0.03 0.03 0.03 0.03 0.03 0.03 0.03 0.03 0.03 0.03
0.00 0.00 0.00 0.00 0.00 0.00 0.00 0.00 0.00 0.00 0.00 0.01 0.02 0.02 0.01 0.00 0.00 0.00 0.00 0.00 0.00 0.00 0.00 0.00 0.00 0.00 0.01 0.01 0.01 0.01 0.01 0.01 0.02 0.02 0.02 0.02 0.02 0.02
0.00 0.00 0.00 0.00 0.00 0.00 0.00 0.00 0.01 0.01 0.03 0.04 0.03 0.01 0.00 0.00 0.00 0.00 0.00 0.00 0.00 0.00 0.00 0.00 0.00 0.00 0.00 0.00 0.00 0.00 0.00 0.01 0.01 0.02 0.03 0.04 0.04 0.04
0.00 0.00 0.00 0.00 0.00 0.00 0.00 0.01 0.02 0.05 0.05 0.03 0.01 0.00 0.00 0.00 0.00 0.01 0.01 0.02 0.01 0.00 0.00 0.00 0.00 0.00 0.00 0.00 0.00 0.00 0.00 0.01 0.02 0.03 0.04 0.04 0.04 0.04
0.00 0.00 0.00 0.00 0.00 0.00 0.00 0.01 0.03 0.03 0.02 0.01 0.00 0.00 0.00 0.01 0.02 0.03 0.02 0.02 0.01 0.00 0.00 0.00 0.00 0.00 0.00 0.00 0.00 0.00 0.00 0.01 0.02 0.02 0.03 0.03 0.03 0.03
0.00 0.00 0.00 0.00 0.00 0.01 0.02 0.03 0.02 0.01 0.00 0.00 0.00 0.00 0.01 0.01 0.02 0.02 0.02 0.02 0.01 0.00 0.00 0.00 0.00 0.00 0.00 0.00 0.00 0.00 0.00 0.01 0.01 0.02 0.03 0.03 0.03 0.03
0.00 0.00 0.00 0.00 0.01 0.02 0.03 0.02 0.01 0.00 0.00 0.00 0.01 0.01 0.00 0.00 0.00 0.01 0.02 0.03 0.01 0.00 0.00 0.00 0.00 0.00 0.00 0.00 0.00 0.00 0.00 0.00 0.01 0.01 0.01 0.02 0.02 0.02
0.00 0.00 0.00 0.00 0.01 0.02 0.02 0.01 0.00 0.00 0.01 0.01 0.00 0.00 0.00 0.00 0.00 0.00 0.03 0.07 0.04 0.02 0.00 0.01 0.01 0.02 0.03 0.00 0.00 0.00 0.00 0.00 0.00 0.00 0.01 0.01 0.02 0.03
0.00 0.00 0.00 0.01 0.02 0.02 0.01 0.00 0.00 0.01 0.01 0.00 0.00 0.00 0.00 0.00 0.00 0.00 0.01 0.08 0.10 0.05 0.01 0.04 0.05 0.02 0.04 0.02 0.00 0.00 0.00 0.00 0.00 0.00 0.00 0.01 0.02 0.05
0.00 0.00 0.00 0.01 0.01 0.00 0.00 0.00 0.01 0.01 0.00 0.00 0.00 0.00 0.00 0.00 0.00 0.00 0.00 0.01 0.04 0.07 0.03 0.06 0.08 0.05 0.06 0.03 0.01 0.00 0.00 0.00 0.01 0.01 0.01 0.01 0.02 0.03
0.00 0.00 0.01 0.00 0.00 0.00 0.00 0.00 0.00 0.00 0.00 0.01 0.00 0.00 0.00 0.00 0.00 0.00 0.00 0.00 0.00 0.01 0.01 0.01 0.05 0.07 0.07 0.07 0.04 0.01 0.01 0.01 0.00 0.01 0.03 0.04 0.04 0.05
0.00 0.00 0.00 0.00 0.00 0.00 0.00 0.00 0.00 0.00 0.00 0.01 0.01 0.00 0.00 0.00 0.00 0.00 0.01 0.01 0.01 0.00 0.00 0.00 0.02 0.06 0.07 0.04 0.05 0.03 0.02 0.03 0.03 0.06 0.07 0.05 0.06 0.09
0.00 0.00 0.00 0.00 0.00 0.00 0.00 0.00 0.00 0.00 0.00 0.00 0.01 0.01 0.00 0.00 0.00 0.00 0.01 0.01 0.01 0.00 0.00 0.00 0.00 0.01 0.02 0.02 0.01 0.01 0.01 0.02 0.06 0.10 0.12 0.08 0.06 0.11
0.00 0.00 0.00 0.00 0.00 0.00 0.00 0.00 0.00 0.00 0.00 0.01 0.01 0.01 0.01 0.01 0.01 0.00 0.00 0.01 0.01 0.01 0.00 0.00 0.01 0.01 0.00 0.00 0.00 0.01 0.01 0.02 0.04 0.06 0.11 0.14 0.09 0.10
0.00 0.00 0.00 0.00 0.00 0.00 0.00 0.01 0.00 0.00 0.01 0.01 0.02 0.02 0.03 0.02 0.01 0.01 0.01 0.01 0.01 0.00 0.00 0.01 0.02 0.03 0.02 0.01 0.00 0.00 0.03 0.04 0.04 0.06 0.12 0.20 0.23 0.19
0.00 0.00 0.00 0.00 0.00 0.00 0.01 0.01 0.01 0.01 0.01 0.01 0.01 0.02 0.03 0.03 0.02 0.02 0.02 0.02 0.02 0.01 0.01 0.00 0.01 0.04 0.06 0.05 0.03 0.00 0.01 0.06 0.10 0.10 0.10 0.09 0.08 0.09
0.00 0.00 0.00 0.00 0.00 0.01 0.01 0.01 0.01 0.01 0.01 0.02 0.02 0.03 0.04 0.04 0.03 0.02 0.02 0.01 0.01 0.01 0.01 0.01 0.00 0.01 0.02 0.01 0.01 0.00 0.00 0.02 0.08 0.14 0.13 0.08 0.04 0.04
0.00 0.00 0.00 0.00 0.01 0.01 0.01 0.01 0.01 0.01 0.02 0.03 0.03 0.03 0.04 0.04 0.04 0.03 0.03 0.02 0.02 0.02 0.01 0.00 0.00 0.00 0.00 0.00 0.00 0.00 0.00 0.00 0.01 0.02 0.07 0.17 0.25 0.31
0.00 0.00 0.00 0.00 0.01 0.01 0.01 0.01 0.01 0.01 0.03 0.04 0.04 0.03 0.04 0.04 0.03 0.03 0.03 0.03 0.03 0.02 0.01 0.00 0.00 0.00 0.00 0.00 0.00 0.00 0.00 0.01 0.01 0.01 0.02 0.07 0.16 0.28
MSLP
1019.70 1019.69 1019.58 1019.33 1018.96 1018.47 1017.89 1017.27 1016.64 1016.04 1015.51 1015.05 1014.67 1014.35 1014.08 1013.83 1013.56 1013.27 1012.92 1012.51 1012.05 1011.54 1010.99 1010.41 1009.83 1009.26 1008.70 1008.17 1007.66 1007.19 1006.74 1006.32 1005.93 1005.56 1005.21 1004.87 1004.55 1004.25
1019.53 1019.54 1019.45 1019.24 1018.90 1018.43 1017.87 1017.24 1016.59 1015.95 1015.36 1014.83 1014.36 1013.96 1013.61 1013.27 1012.93 1012.57 1012.17 1011.72 1011.23 1010.70 1010.14 1009.57 1008.99 1008.43 1007.88 1007.35 1006.86 1006.39 1005.95 1005.53 1005.14 1004.76 1004.39 1004.04 1003.69 1003.35
1019.25 1019.26 1019.19 1019.01 1018.70 1018.28 1017.75 1017.14 1016.49 1015.83 1015.19 1014.60 1014.07 1013.58 1013.14 1012.71 1012.28 1011.84 1011.37 1010.86 1010.32 1009.75 1009.16 1008.56 1007.97 1007.40 1006.85 1006.33 1005.84 1005.38 1004.95 1004.55 1004.17 1003.79 1003.43 1003.07 1002.71 1002.34
1018.88 1018.89 1018.83 1018.67 1018.41 1018.03 1017.54 1016.97 1016.34 1015.68 1015.03 1014.39 1013.80 1013.24 1012.71 1012.19 1011.67 1011.14 1010.59 1010.01 1009.39 1008.76 1008.12 1007.48 1006.85 1006.24 1005.67 1005.13 1004.64 1004.18 1003.76 1003.37 1003.00 1002.65 1002.30 1001.95 1001.58 1001.21
1018.49 1018.47 1018.41 1018.28 1018.06 1017.72 1017.28 1016.75 1016.15 1015.51 1014.85 1014.19 1013.55 1012.93 1012.33 1011.74 1011.15 1010.53 1009.90 1009.23 1008.54 1007.83 1007.11 1006.40 1005.71 1005.04 1004.41 1003.84 1003.31 1002.84 1002.41 1002.02 1001.67 1001.33 1001.00 1000.67 1000.32 999.97
1018.10 1018.06 1018.00 1017.88 1017.68 1017.38 1016.98 1016.49 1015.92 1015.30 1014.64 1013.98 1013.31 1012.66 1012.01 1011.37 1010.71 1010.03 1009.32 1008.58 1007.81 1007.02 1006.22 1005.41 1004.63 1003.88 1003.17 1002.52 1001.94 1001.42 1000.96 1000.56 1000.20 999.87 999.56 999.26 998.95 998.62
1017.77 1017.70 1017.61 1017.49 1017.30 1017.02 1016.64 1016.18 1015.63 1015.03 1014.39 1013.72 1013.05 1012.39 1011.72 1011.04 1010.35 1009.63 1008.87 1008.07 1007.23 1006.36 1005.47 1004.58 1003.69 1002.83 1002.03 1001.28 1000.61 1000.02 999.51 999.06 998.68 998.35 998.05 997.76 997.48 997.20
1017.50 1017.38 1017.27 1017.12 1016.92 1016.63 1016.26 1015.80 1015.27 1014.67 1014.04 1013.39 1012.72 1012.06 1011.39 1010.72 1010.02 1009.28 1008.51 1007.68 1006.79 1005.86 1004.90 1003.91 1002.92 1001.96 1001.04 1000.18 999.40 998.71 998.12 997.61 997.17 996.81 996.50 996.22 995.96 995.71
1017.28 1017.12 1016.96 1016.77 1016.53 1016.21 1015.81 1015.34 1014.80 1014.21 1013.58 1012.94 1012.29 1011.65 1011.00 1010.35 1009.67 1008.95 1008.18 1007.35 1006.45 1005.48 1004.46 1003.40 1002.32 1001.26 1000.22 999.25 998.36 997.56 996.86 996.25 995.74 995.32 994.96 994.66 994.40 994.17
1017.08 1016.87 1016.65 1016.40 1016.11 1015.74 1015.30 1014.79 1014.23 1013.63 1013.00 1012.37 1011.75 1011.13 1010.52 1009.91 1009.27 1008.58 1007.84 1007.03 1006.13 1005.15 1004.10 1002.99 1001.85 1000.70 999.58 998.50 997.49 996.57 995.75 995.04 994.43 993.91 993.47 993.11 992.82 992.57
1016.88 1016.61 1016.33 1016.01 1015.64 1015.21 1014.72 1014.17 1013.58 1012.96 1012.33 1011.71 1011.11 1010.52 1009.95 1009.38 1008.78 1008.14 1007.44 1006.66 1005.78 1004.81 1003.75 1002.62 1001.45 1000.24 999.05 997.88 996.78 995.75 994.81 993.98 993.24 992.60 992.05 991.59 991.21 990.91
1016.64 1016.31 1015.96 1015.58 1015.14 1014.65 1014.11 1013.52 1012.90 1012.26 1011.63 1011.02 1010.43 1009.87 1009.33 1008.79 1008.23 1007.63 1006.96 1006.21 1005.36 1004.41 1003.36 1002.23 1001.04 999.81 998.57 997.35 996.17 995.05 994.00 993.04 992.17 991.39 990.71 990.11 989.61 989.19
1016.36 1015.98 1015.57 1015.12 1014.63 1014.09 1013.50 1012.88 1012.24 1011.60 1010.97 1010.37 1009.79 1009.25 1008.72 1008.20 1007.66 1007.07 1006.42 1005.68 1004.85 1003.91 1002.88 1001.76 1000.57 999.34 998.09 996.84 995.61 994.42 993.28 992.21 991.21 990.28 989.43 988.68 988.01 987.45
1016.04 1015.62 1015.16 1014.67 1014.15 1013.57 1012.97 1012.34 1011.69 1011.05 1010.43 1009.83 1009.26 1008.71 1008.18 1007.65 1007.09 1006.49 1005.83 1005.08 1004.24 1003.31 1002.29 1001.19 1000.02 998.81 997.56 996.31 995.06 993.83 992.62 991.45 990.33 989.26 988.24 987.31 986.47 985.75
1015.72 1015.27 1014.79 1014.28 1013.73 1013.15 1012.55 1011.92 1011.29 1010.67 1010.05 1009.46 1008.88 1008.31 1007.75 1007.18 1006.58 1005.93 1005.23 1004.44 1003.58 1002.63 1001.61 1000.52 999.38 998.19 996.98 995.74 994.49 993.24 991.99 990.75 989.52 988.32 987.15 986.05 985.04 984.14
1015.43 1014.97 1014.48 1013.96 1013.43 1012.86 1012.28 1011.68 1011.07 1010.46 1009.85 1009.25 1008.65 1008.05 1007.44 1006.80 1006.13 1005.41 1004.63 1003.79 1002.88 1001.90 1000.87 999.79 998.67 997.51 996.33 995.13 993.90 992.65 991.38 990.09 988.78 987.47 986.18 984.93 983.76 982.70
1015.21 1014.74 1014.26 1013.76 1013.24 1012.71 1012.15 1011.58 1011.00 1010.40 1009.80 1009.18 1008.55 1007.90 1007.22 1006.50 1005.74 1004.92 1004.06 1003.14 1002.17 1001.15 1000.10 999.02 997.92 996.80 995.66 994.49 993.30 992.07 990.79 989.47 988.11 986.73 985.34 983.97 982.68 981.50
1015.06 1014.60 1014.14 1013.66 1013.17 1012.67 1012.14 1011.59 1011.03 1010.43 1009.82 1009.17 1008.49 1007.77 1007.01 1006.21 1005.35 1004.45 1003.49 1002.50 1001.47 1000.42 999.35 998.27 997.19 996.10 994.99 993.87 992.71 991.51 990.25 988.92 987.54 986.11 984.66 983.23 981.85 980.59
1014.98 1014.54 1014.10 1013.65 1013.18 1012.69 1012.18 1011.64 1011.07 1010.46 1009.81 1009.12 1008.39 1007.60 1006.76 1005.87 1004.93 1003.94 1002.92 1001.87 1000.80 999.72 998.64 997.57 996.51 995.45 994.39 993.31 992.18 991.01 989.77 988.45 987.07 985.63 984.15 982.69 981.28 979.99
1014.95 1014.53 1014.11 1013.66 1013.20 1012.72 1012.20 1011.64 1011.05 1010.40 1009.70 1008.96 1008.15 1007.30 1006.39 1005.43 1004.42 1003.38 1002.32 1001.24 1000.15 999.07 998.01 996.96 995.93 994.90 993.87 992.83 991.74 990.59 989.38 988.09 986.72 985.29 983.83 982.37 980.97 979.67
1014.95 1014.53 1014.11 1013.67 1013.19 1012.69 1012.14 1011.54 1010.89 1010.19 1009.43 1008.61 1007.75 1006.83 1005.86 1004.86 1003.82 1002.76 1001.69 1000.61 999.54 998.49 997.46 996.45 995.45 994.47 993.48 992.46 991.41 990.29 989.11 987.84 986.50 985.11 983.68 982.26 980.90 979.64
1014.92 1014.51 1014.07 1013.61 1013.10 1012.55 1011.94 1011.28 1010.56 1009.79 1008.96 1008.08 1007.15 1006.19 1005.19 1004.17 1003.13 1002.08 1001.04 1000.00 998.99 997.99 997.01 996.05 995.11 994.17 993.22 992.24 991.21 990.13 988.97 987.75 986.45 985.10 983.73 982.37 981.06 979.86
1014.86 1014.43 1013.96 1013.46 1012.90 1012.28 1011.60 1010.87 1010.07 1009.22 1008.32 1007.38 1006.41 1005.42 1004.42 1003.41 1002.40 1001.40 1000.42 999.45 998.51 997.59 996.68 995.79 994.91 994.02 993.11 992.17 991.18 990.12 989.00 987.82 986.57 985.28 983.98 982.69 981.45 980.31
Thickness
5501 5496 5490 5485 5479 5474 5470 5466 5464 5470 5476 5467 5456 5445 5433 5426 5419 5412 5408 5403 5396 5387 5379 5372 5365 5357 5350 5345 5341 5338 5335 5333 5332 5333 5335 5339 5345 5353
5488 5482 5477 5471 5466 5461 5456 5451 5445 5443 5448 5449 5436 5425 5414 5404 5395 5386 5380 5373 5364 5353 5343 5336 5331 5326 5323 5320 5317 5315 5313 5311 5309 5308 5309 5311 5315 5321
5476 5469 5463 5456 5451 5446 5440 5434 5429 5424 5426 5430 5417 5406 5395 5384 5375 5362 5350 5340 5332 5323 5317 5314 5312 5310 5308 5307 5306 5304 5303 5300 5298 5295 5294 5294 5295 5299
5464 5456 5449 5442 5436 5430 5424 5418 5412 5406 5402 5404 5399 5387 5375 5361 5349 5336 5323 5313 5308 5306 5303 5303 5303 5302 5302 5301 5300 5299 5298 5295 5292 5289 5285 5284 5283 5284
5450 5443 5436 5428 5421 5415 5408 5402 5396 5388 5380 5376 5375 5366 5353 5336 5324 5315 5304 5299 5296 5295 5295 5297 5297 5297 5297 5297 5297 5297 5296 5293 5289 5285 5281 5278 5277 5277
5437 5429 5421 5414 5406 5399 5393 5386 5377 5368 5359 5352 5347 5338 5325 5312 5301 5298 5296 5290 5288 5288 5289 5292 5294 5294 5294 5294 5293 5293 5291 5289 5285 5281 5278 5275 5274 5274
5426 5417 5409 5400 5391 5383 5375 5366 5355 5345 5335 5325 5318 5309 5301 5294 5288 5284 5283 5283 5284 5282 5288 5292 5291 5293 5293 5293 5292 5290 5287 5283 5280 5278 5275 5274 5273 5274
5413 5406 5398 5389 5380 5370 5359 5346 5332 5320 5309 5298 5292 5285 5283 5279 5276 5273 5272 5275 5282 5281 5283 5289 5286 5290 5292 5293 5292 5289 5285 5281 5278 5276 5275 5274 5274 5275
5400 5392 5385 5376 5364 5353 5342 5329 5314 5298 5284 5275 5272 5270 5269 5267 5265 5266 5267 5269 5273 5274 5275 5287 5288 5290 5291 5292 5291 5288 5284 5281 5279 5278 5278 5278 5278 5278
5387 5379 5370 5360 5347 5334 5325 5312 5298 5284 5273 5265 5261 5260 5259 5258 5258 5259 5260 5264 5270 5271 5271 5279 5285 5287 5290 5291 5291 5289 5287 5285 5284 5284 5284 5284 5285 5285
5376 5366 5354 5342 5329 5316 5305 5295 5285 5275 5266 5259 5256 5256 5256 5254 5253 5253 5255 5258 5266 5272 5269 5272 5278 5281 5285 5291 5294 5294 5292 5291 5290 5290 5291 5291 5291 5292
5364 5352 5339 5325 5310 5296 5286 5279 5274 5267 5261 5258 5257 5256 5254 5253 5251 5249 5248 5249 5255 5263 5269 5267 5268 5269 5280 5293 5294 5294 5295 5297 5298 5298 5298 5298 5297 5295
5346 5335 5321 5306 5292 5280 5271 5266 5262 5259 5257 5256 5255 5253 5252 5251 5250 5246 5242 5241 5245 5253 5259 5258 5261 5262 5264 5281 5293 5295 5297 5301 5301 5300 5300 5301 5301 5300
5327 5315 5302 5288 5277 5269 5263 5259 5255 5254 5253 5251 5249 5249 5248 5246 5244 5242 5240 5239 5240 5246 5252 5252 5255 5260 5265 5274 5287 5299 5301 5300 5302 5303 5303 5304 5305 5306
5308 5295 5283 5274 5267 5262 5258 5254 5252 5250 5248 5245 5244 5244 5242 5241 5241 5241 5242 5242 5243 5246 5251 5254 5256 5261 5265 5273 5284 5293 5299 5304 5305 5305 5306 5307 5310 5312
5293 5282 5272 5265 5260 5256 5254 5252 5250 5247 5243 5241 5240 5238 5238 5238 5238 5239 5240 5242 5245 5251 5253 5256 5259 5263 5270 5277 5283 5291 5295 5299 5305 5306 5308 5313 5317 5319
5279 5272 5267 5261 5256 5253 5251 5249 5246 5244 5240 5236 5234 5234 5234 5235 5235 5236 5236 5238 5241 5248 5256 5259 5263 5268 5273 5279 5288 5295 5301 5303 5304 5306 5310 5317 5325 5327
5267 5263 5259 5254 5251 5248 5246 5244 5242 5240 5236 5233 5232 5231 5231 5231 5232 5234 5234 5236 5240 5246 5252 5258 5264 5273 5282 5292 5295 5298 5301 5303 5306 5308 5310 5317 5327 5332
5259 5255 5252 5248 5245 5243 5241 5239 5239 5237 5234 5231 5230 5229 5228 5228 5229 5231 5233 5236 5239 5244 5250 5256 5263 5270 5279 5288 5298 5299 5299 5302 5306 5312 5315 5318 5324 5331
5252 5249 5246 5244 5241 5239 5238 5237 5236 5235 5233 5230 5229 5228 5227 5227 5228 5229 5231 5234 5238 5244 5251 5258 5264 5269 5274 5280 5289 5297 5301 5303 5306 5311 5318 5324 5331 5338
5247 5245 5243 5242 5240 5238 5237 5236 5234 5233 5231 5229 5228 5228 5227 5227 5227 5229 5231 5235 5239 5246 5253 5260 5266 5270 5275 5282 5290 5302 5308 5308 5308 5310 5317 5325 5334 5345
5244 5243 5242 5241 5240 5238 5237 5236 5235 5233 5232 5230 5230 5229 5228 5228 5228 5230 5233 5237 5242 5248 5255 5262 5269 5275 5281 5285 5292 5300 5308 5313 5317 5319 5320 5322 5328 5337
5243 5243 5243 5242 5241 5240 5239 5237 5236 5235 5234 5232 5231 5231 5231 5231 5232 5234 5237 5241 5246 5252 5258 5264 5272 5279 5284 5290 5295 5301 5308 5314 5320 5325 5331 5333 5337 5343